TimeCST,TemperatureF,Dew PointF,Humidity,Sea Level PressureIn,VisibilityMPH,Wind Direction,Wind SpeedMPH,Gust SpeedMPH,PrecipitationIn,Events,Conditions,WindDirDegrees,DateUTC
12:10 AM,57.2,53.6,88,29.45,8.0,SSW,12.7,21.9,N/A,,Mostly Cloudy,200,2013-11-17 06:10:00
12:53 AM,57.0,53.1,87,29.44,8.0,SSW,15.0,19.6,N/A,,Overcast,200,2013-11-17 06:53:00
1:06 AM,57.2,53.6,88,29.45,8.0,SSW,12.7,21.9,N/A,,Overcast,200,2013-11-17 07:06:00
1:34 AM,57.2,53.6,88,29.44,8.0,SSW,16.1,21.9,N/A,,Overcast,200,2013-11-17 07:34:00
1:53 AM,57.0,52.0,83,29.44,8.0,SSW,15.0,21.9,N/A,,Mostly Cloudy,200,2013-11-17 07:53:00
2:23 AM,57.2,53.6,88,29.44,8.0,SSW,12.7,-,N/A,,Mostly Cloudy,200,2013-11-17 08:23:00
2:33 AM,57.2,51.8,82,29.43,8.0,SSW,12.7,19.6,N/A,,Mostly Cloudy,200,2013-11-17 08:33:00
2:53 AM,57.0,52.0,83,29.42,8.0,SSW,13.8,-,N/A,,Scattered Clouds,200,2013-11-17 08:53:00
3:07 AM,57.2,53.6,88,29.43,8.0,SSW,11.5,-,N/A,,Mostly Cloudy,200,2013-11-17 09:07:00
3:26 AM,57.2,51.8,82,29.41,8.0,South,11.5,-,N/A,,Scattered Clouds,190,2013-11-17 09:26:00
3:53 AM,55.9,52.0,87,29.40,8.0,SW,6.9,-,N/A,,Mostly Cloudy,220,2013-11-17 09:53:00
4:53 AM,55.9,52.0,87,29.39,10.0,SSW,9.2,-,N/A,,Mostly Cloudy,200,2013-11-17 10:53:00
5:53 AM,54.0,51.1,90,29.37,9.0,South,3.5,-,N/A,,Overcast,180,2013-11-17 11:53:00
6:53 AM,54.0,51.1,90,29.37,10.0,South,8.1,-,N/A,,Overcast,190,2013-11-17 12:53:00
7:53 AM,54.0,51.1,90,29.33,6.0,SSE,6.9,-,0.01,Rain,Light Rain,150,2013-11-17 13:53:00
8:20 AM,53.6,51.8,94,29.35,2.5,South,5.8,-,0.04,Rain,Light Rain,170,2013-11-17 14:20:00
8:53 AM,54.0,52.0,93,29.30,1.5,Calm,Calm,-,0.10,Rain,Rain,0,2013-11-17 14:53:00
9:07 AM,53.6,51.8,94,29.29,1.5,NNE,4.6,-,0.01,Rain,Light Rain,30,2013-11-17 15:07:00
9:16 AM,53.6,51.8,94,29.29,1.5,Calm,Calm,-,0.03,Rain,Rain,0,2013-11-17 15:16:00
9:37 AM,53.6,51.8,94,29.29,0.2,NW,5.8,-,0.16,Rain,Heavy Rain,310,2013-11-17 15:37:00
9:53 AM,54.0,52.0,93,29.27,0.2,NNW,8.1,-,0.26,Rain,Light Rain,330,2013-11-17 15:53:00
10:02 AM,53.6,51.8,94,29.28,1.0,NW,8.1,-,0.04,Rain-Thunderstorm,Rain,310,2013-11-17 16:02:00
10:13 AM,53.6,51.8,94,29.30,2.0,WNW,6.9,-,0.08,Rain,Rain,300,2013-11-17 16:13:00
10:20 AM,53.6,51.8,94,29.29,1.8,NW,8.1,-,0.10,Rain-Thunderstorm,Rain,320,2013-11-17 16:20:00
10:25 AM,53.6,51.8,94,29.27,2.0,NNE,4.6,-,0.10,Rain-Thunderstorm,Light Rain,20,2013-11-17 16:25:00
10:33 AM,53.6,51.8,94,29.26,2.5,NNE,6.9,-,0.12,Rain-Thunderstorm,Rain,20,2013-11-17 16:33:00
10:38 AM,53.6,51.8,94,29.24,3.0,North,6.9,-,0.13,Rain,Light Rain,350,2013-11-17 16:38:00
10:53 AM,54.0,52.0,93,29.21,6.0,NNE,6.9,-,0.14,Rain,Light Rain,30,2013-11-17 16:53:00
11:39 AM,53.6,51.8,94,29.18,2.0,NE,5.8,-,0.00,,Mostly Cloudy,50,2013-11-17 17:39:00
11:42 AM,53.6,51.8,94,29.17,0.8,NE,5.8,-,0.00,,Mostly Cloudy,50,2013-11-17 17:42:00
11:50 AM,53.6,51.8,94,29.18,1.0,East,6.9,-,0.00,,Mostly Cloudy,80,2013-11-17 17:50:00
11:53 AM,53.1,51.1,93,29.17,1.5,ENE,5.8,-,0.00,,Overcast,60,2013-11-17 17:53:00
11:59 AM,51.8,50.0,94,29.21,2.0,WNW,10.4,-,N/A,,Overcast,300,2013-11-17 17:59:00
12:08 PM,53.6,51.8,94,29.20,2.5,WNW,16.1,21.9,0.05,Rain,Heavy Rain,300,2013-11-17 18:08:00
12:13 PM,53.6,51.8,94,29.20,1.8,NW,8.1,21.9,0.07,Rain,Rain,310,2013-11-17 18:13:00
12:17 PM,53.6,51.8,94,29.19,2.0,NNW,5.8,19.6,0.09,Rain,Rain,330,2013-11-17 18:17:00
12:32 PM,53.6,50.0,88,29.18,8.0,North,6.9,-,0.10,Rain,Light Rain,10,2013-11-17 18:32:00
12:50 PM,53.6,48.2,82,29.19,10.0,NW,9.2,-,0.10,,Overcast,310,2013-11-17 18:50:00
12:53 PM,53.1,48.9,86,29.18,10.0,NNW,10.4,-,0.10,,Overcast,330,2013-11-17 18:53:00
1:07 PM,53.6,50.0,88,29.16,10.0,NW,8.1,-,N/A,,Overcast,320,2013-11-17 19:07:00
1:53 PM,53.1,48.9,86,29.16,10.0,NNW,6.9,-,N/A,,Overcast,330,2013-11-17 19:53:00
2:13 PM,50.0,42.8,76,29.18,10.0,NW,15.0,26.5,N/A,,Overcast,320,2013-11-17 20:13:00
2:53 PM,46.9,43.0,86,29.18,4.0,NW,10.4,-,0.03,Rain,Light Rain,310,2013-11-17 20:53:00
3:02 PM,46.4,42.8,87,29.19,4.0,NW,8.1,-,0.01,Rain,Light Rain,320,2013-11-17 21:02:00
3:21 PM,46.4,42.8,87,29.20,1.8,WNW,6.9,-,0.06,Rain,Rain,290,2013-11-17 21:21:00
3:33 PM,46.4,42.8,87,29.21,2.0,WNW,10.4,-,0.09,Rain,Rain,290,2013-11-17 21:33:00
3:46 PM,46.4,42.8,87,29.21,5.0,NW,16.1,24.2,0.11,Rain,Light Rain,310,2013-11-17 21:46:00
3:53 PM,46.9,42.1,83,29.21,6.0,WNW,15.0,24.2,0.11,Rain,Light Rain,300,2013-11-17 21:53:00
4:01 PM,46.4,42.8,87,29.22,6.0,WNW,10.4,20.7,0.00,Rain,Light Rain,290,2013-11-17 22:01:00
4:53 PM,45.0,41.0,86,29.28,5.0,WNW,17.3,32.2,0.11,Rain,Rain,290,2013-11-17 22:53:00
5:53 PM,44.1,39.9,85,29.34,10.0,West,15.0,32.2,0.09,Rain,Light Rain,280,2013-11-17 23:53:00
6:51 PM,44.6,37.4,76,29.37,10.0,West,19.6,34.5,0.00,,Overcast,280,2013-11-18 00:51:00
6:53 PM,44.1,37.9,79,29.38,10.0,West,21.9,36.8,0.00,,Overcast,280,2013-11-18 00:53:00
7:53 PM,43.0,36.0,76,29.42,10.0,WNW,21.9,33.4,N/A,,Overcast,290,2013-11-18 01:53:00
8:53 PM,43.0,34.0,71,29.46,10.0,West,18.4,35.7,N/A,,Overcast,280,2013-11-18 02:53:00
9:21 PM,42.8,33.8,70,29.48,10.0,West,24.2,33.4,N/A,,Overcast,280,2013-11-18 03:21:00
9:53 PM,43.0,33.1,68,29.50,10.0,West,16.1,32.2,N/A,,Mostly Cloudy,280,2013-11-18 03:53:00
10:53 PM,41.0,32.0,70,29.55,10.0,West,15.0,28.8,N/A,,Overcast,280,2013-11-18 04:53:00
11:53 PM,39.9,30.0,68,29.58,10.0,West,15.0,24.2,N/A,,Overcast,280,2013-11-18 05:53:00